VR2R-13 Weather Reports


Display with metric or nautical units.
time (UTC)temp
F
wind
direction
speed
MPH
gust
MPH
rain 1hr
in
rain 24hr
in
rain mn
in
humidity
%
barometer
mb
20260903192550 65 360 6.0 9.0 0.00 0.00 0.00 95 905.0
20260903192251 65 28 4.0 9.0 0.00 0.00 0.00 95 905.0
20260903192050 65 342 5.0 9.0 0.00 0.00 0.00 95 905.0
20260903191651 65 269 5.0 10.0 0.00 0.00 0.00 96 905.0
20260903191550 65 345 5.0 11.0 0.00 0.00 0.00 96 904.9
20260903191052 65 322 6.0 12.0 0.00 0.00 0.00 96 904.9
20260903191050 65 302 6.0 12.0 0.00 0.00 0.00 96 904.9
20260903190550 65 307 7.0 14.0 0.00 0.00 0.00 96 904.8
20260903190451 65 285 5.0 14.0 0.00 0.00 0.00 96 904.9
20260903190050 65 356 8.0 14.0 0.00 0.00 0.00 96 904.9
20260903185851 65 329 5.0 9.0 0.00 0.00 0.00 96 904.9
20260903185550 65 2 5.0 9.0 0.00 0.00 0.00 96 904.8
20260903185251 65 323 5.0 9.0 0.00 0.00 0.00 96 904.7
20260903185050 65 360 4.0 9.0 0.00 0.00 0.00 96 904.7
20260903184651 65 6 5.0 10.0 0.00 0.00 0.00 96 904.8
20260903184550 65 353 5.0 10.0 0.00 0.00 0.00 96 904.8
20260903184059 65 350 6.0 10.0 0.00 0.00 0.00 96 904.7
20260903184051 65 7 6.0 10.0 0.00 0.00 0.00 96 904.7
20260903183550 65 353 5.0 11.0 0.00 0.00 0.00 96 904.8
20260903183451 65 290 6.0 11.0 0.00 0.00 0.00 96 904.8
20260903183050 65 280 5.0 11.0 0.00 0.00 0.00 96 904.8
20260903182851 65 292 7.0 11.0 0.00 0.00 0.00 96 904.7
20260903182550 65 319 3.0 11.0 0.00 0.00 0.00 96 904.7
20260903182251 65 314 6.0 11.0 0.00 0.00 0.00 96 904.8
20260903182049 65 313 7.0 11.0 0.00 0.00 0.00 96 904.7
20260903181651 65 360 5.0 9.0 0.00 0.00 0.00 96 904.8
20260903181549 65 323 3.0 9.0 0.00 0.00 0.00 96 904.8
20260903181051 65 314 5.0 11.0 0.00 0.00 0.00 96 904.8
20260903180549 65 6 6.0 11.0 0.00 0.00 0.00 96 904.8
20260903180451 65 348 5.0 11.0 0.00 0.00 0.00 96 904.9
20260903180050 65 330 5.0 11.0 0.00 0.00 0.00 96 904.8
20260903175851 65 319 4.0 9.0 0.00 0.00 0.00 96 904.8
20260903175549 65 343 4.0 9.0 0.00 0.00 0.00 96 904.8
20260903175251 66 304 5.0 9.0 0.00 0.00 0.00 96 904.9
20260903175049 66 342 4.0 9.0 0.00 0.00 0.00 96 904.8
20260903174651 65 21 5.0 10.0 0.00 0.00 0.00 96 904.8
20260903174549 65 296 5.0 10.0 0.00 0.00 0.00 96 904.8
20260903174051 65 328 5.0 10.0 0.00 0.00 0.00 96 904.8
20260903174049 65 4 5.0 10.0 0.00 0.00 0.00 96 904.8
20260903173549 65 335 4.0 8.0 0.00 0.00 0.00 96 904.9
20260903173450 65 295 4.0 8.0 0.00 0.00 0.00 96 904.9
20260903173049 66 121 2.0 8.0 0.00 0.00 0.00 96 904.8
20260903172850 66 35 3.0 8.0 0.00 0.00 0.00 96 905.0
20260903172549 66 344 3.0 8.0 0.00 0.00 0.00 96 904.9
20260903172251 66 327 2.0 11.0 0.00 0.00 0.00 96 904.9
20260903172049 66 310 3.0 11.0 0.00 0.00 0.00 96 904.9
20260903171650 66 245 4.0 11.0 0.00 0.00 0.00 96 904.9
20260903171549 66 13 3.0 11.0 0.00 0.00 0.00 96 904.9
20260903171051 66 286 3.0 9.0 0.00 0.00 0.00 96 904.9
20260903171049 66 312 3.0 9.0 0.00 0.00 0.00 96 904.9
20260903170549 66 308 3.0 9.0 0.00 0.00 0.00 96 904.9
20260903170450 66 266 4.0 9.0 0.00 0.00 0.00 96 904.9
20260903170049 66 346 3.0 8.0 0.00 0.00 0.00 96 904.8
20260903165850 66 300 3.0 11.0 0.00 0.00 0.00 96 904.8
20260903165549 66 28 3.0 11.0 0.00 0.00 0.00 96 904.8
20260903165250 66 301 2.0 10.0 0.00 0.00 0.00 96 904.8
20260903165049 66 154 3.0 10.0 0.00 0.00 0.00 96 904.8
20260903164650 66 266 3.0 10.0 0.00 0.00 0.00 96 904.8
20260903164549 66 140 3.0 10.0 0.00 0.00 0.00 96 904.9
20260903164050 66 267 1.0 5.0 0.00 0.00 0.00 96 904.9
20260903163549 66 353 3.0 8.0 0.00 0.00 0.00 96 904.9
20260903163450 66 156 2.0 9.0 0.00 0.00 0.00 96 904.9
20260903163049 66 165 2.0 11.0 0.00 0.00 0.00 96 904.9
20260903162850 66 177 3.0 11.0 0.00 0.00 0.00 96 904.9
20260903162549 66 80 4.0 11.0 0.00 0.00 0.00 96 904.9
20260903162250 66 266 6.0 11.0 0.00 0.00 0.00 96 904.9
20260903162049 66 284 2.0 9.0 0.00 0.00 0.00 96 904.8
20260903161650 66 325 3.0 9.0 0.00 0.00 0.00 96 904.9
20260903161549 66 347 3.0 9.0 0.00 0.00 0.00 96 904.9
20260903161050 66 315 2.0 9.0 0.00 0.00 0.00 96 904.9
20260903161048 66 280 2.0 9.0 0.00 0.00 0.00 96 904.9
20260903160548 66 278 1.0 6.0 0.00 0.00 0.00 96 904.9
20260903160450 66 93 0.0 2.0 0.00 0.00 0.00 96 905.0
20260903160049 66 18 3.0 8.0 0.00 0.00 0.00 96 904.9
20260903155850 66 330 3.0 8.0 0.00 0.00 0.00 96 904.9
20260903155548 66 346 5.0 12.0 0.00 0.00 0.00 96 904.9
20260903155250 66 17 1.0 6.0 0.00 0.00 0.00 96 904.9
20260903155048 66 8 4.0 8.0 0.00 0.00 0.00 96 904.9
20260903154650 66 64 1.0 6.0 0.00 0.00 0.00 96 904.9
20260903154548 66 63 3.0 12.0 0.00 0.00 0.00 96 904.9
20260903154050 66 35 6.0 11.0 0.00 0.00 0.00 96 904.9
20260903154048 66 39 6.0 11.0 0.00 0.00 0.00 96 904.9
20260903153549 66 344 6.0 12.0 0.00 0.00 0.00 96 904.9
20260903153449 66 24 6.0 12.0 0.00 0.00 0.00 96 904.9
20260903153048 66 360 7.0 12.0 0.00 0.00 0.00 96 905.0
20260903152849 66 32 7.0 12.0 0.00 0.00 0.00 96 904.9
20260903152548 66 18 5.0 9.0 0.00 0.00 0.00 96 905.0
20260903152249 66 11 4.0 9.0 0.00 0.00 0.00 96 904.9
20260903152048 66 360 4.0 9.0 0.00 0.00 0.00 96 905.0
20260903151649 66 3 3.0 8.0 0.00 0.00 0.00 96 904.9
20260903151548 66 19 1.0 7.0 0.00 0.00 0.00 96 905.0
20260903151050 66 26 7.0 12.0 0.00 0.00 0.00 96 904.9
20260903151048 66 32 7.0 12.0 0.00 0.00 0.00 96 904.9
20260903150548 66 16 6.0 13.0 0.00 0.00 0.00 96 904.9
20260903150450 66 73 6.0 13.0 0.00 0.00 0.00 96 905.0
20260903150048 66 355 8.0 13.0 0.00 0.00 0.00 96 904.9
20260903145849 66 9 8.0 13.0 0.00 0.00 0.00 96 904.9
20260903145548 66 4 6.0 12.0 0.00 0.00 0.00 96 904.8
20260903145249 66 15 1.0 10.0 0.00 0.00 0.00 97 904.8
20260903145048 66 360 6.0 14.0 0.00 0.00 0.00 97 904.8
20260903144651 66 34 0.0 0.0 0.00 0.00 0.00 97 904.9
20260903144548 66 30 3.0 10.0 0.00 0.00 0.00 97 904.9
20260903142849 66 302 5.0 11.0 0.00 0.00 0.00 97 904.9
20260903142251 66 93 0.0 0.0 0.00 0.00 0.00 97 904.9
20260903142048 66 54 3.0 10.0 0.00 0.00 0.00 97 904.9
20260903141649 67 253 5.0 10.0 0.00 0.00 0.00 97 904.9
20260903141548 67 329 5.0 10.0 0.00 0.00 0.00 97 904.8
20260903141049 67 345 3.0 11.0 0.00 0.00 0.00 97 904.8
20260903141047 67 356 3.0 11.0 0.00 0.00 0.00 97 904.8
20260903140548 67 322 3.0 11.0 0.00 0.00 0.00 97 904.7
20260903140449 67 7 4.0 12.0 0.00 0.00 0.00 97 904.8
20260903140047 67 136 4.0 12.0 0.00 0.00 0.00 97 904.7
20260903135547 67 328 5.0 12.0 0.00 0.00 0.00 97 904.8
20260903135249 67 38 4.0 12.0 0.00 0.00 0.00 97 904.6
20260903135047 67 360 5.0 12.0 0.00 0.00 0.00 97 904.7
20260903134649 67 11 6.0 14.0 0.00 0.00 0.00 97 904.8
20260903134547 67 314 6.0 14.0 0.00 0.00 0.00 97 904.7
20260903134049 67 8 7.0 14.0 0.00 0.00 0.00 97 904.8
20260903134047 67 17 7.0 14.0 0.00 0.00 0.00 97 904.7
20260903133547 67 32 4.0 11.0 0.00 0.00 0.00 97 904.7
20260903133449 67 12 1.0 8.0 0.00 0.00 0.00 97 904.6
20260903133047 67 21 7.0 12.0 0.00 0.00 0.00 97 904.6
20260903132848 67 9 7.0 12.0 0.00 0.00 0.00 97 904.5
20260903132547 66 4 0.0 9.0 0.00 0.00 0.00 98 904.5
20260903131547 67 24 8.0 15.0 0.00 0.00 0.00 97 904.3
20260903131049 67 1 9.0 15.0 0.00 0.00 0.00 97 904.2
20260903131047 67 360 9.0 15.0 0.00 0.00 0.00 97 904.2
20260903130547 67 21 8.0 15.0 0.00 0.00 0.00 97 904.2
20260903130448 67 324 7.0 15.0 0.00 0.00 0.00 97 904.3
20260903130047 67 355 6.0 12.0 0.00 0.00 0.00 97 904.1
20260903125848 67 302 8.0 13.0 0.00 0.00 0.00 97 904.1
20260903125547 67 347 7.0 12.0 0.00 0.00 0.00 97 904.0
20260903125047 67 7 8.0 12.0 0.00 0.00 0.00 97 904.1
20260903124648 67 42 7.0 16.0 0.00 0.00 0.00 97 904.0
20260903124547 67 2 8.0 16.0 0.00 0.00 0.00 97 904.0
20260903124049 67 24 9.0 17.0 0.00 0.00 0.00 97 904.0
20260903124047 67 20 9.0 17.0 0.00 0.00 0.00 97 903.9
20260903123547 67 316 9.0 17.0 0.00 0.00 0.00 97 903.8
20260903123448 67 352 8.0 13.0 0.00 0.00 0.00 97 903.7
20260903123047 67 37 1.0 10.0 0.00 0.00 0.00 98 903.9
20260903122848 67 311 4.0 11.0 0.00 0.00 0.00 97 903.9
20260903122547 67 72 6.0 10.0 0.00 0.00 0.00 97 903.9
20260903122248 67 2 5.0 10.0 0.00 0.00 0.00 97 903.9
20260903122047 67 51 3.0 7.0 0.00 0.00 0.00 97 904.0
20260903121648 67 125 2.0 5.0 0.00 0.00 0.00 97 904.0
20260903121547 67 109 1.0 5.0 0.00 0.00 0.00 98 903.9
20260903121048 67 268 3.0 10.0 0.00 0.00 0.00 97 903.9
20260903120546 67 248 5.0 10.0 0.00 0.00 0.00 97 903.9
20260903120047 67 4 5.0 13.0 0.01 0.01 0.00 97 903.9
20260903115848 67 29 5.0 10.0 0.01 0.01 0.00 97 903.8
20260903115546 67 15 3.0 9.0 0.00 0.00 0.00 97 903.9
20260903115248 67 101 2.0 9.0 0.00 0.00 0.00 97 903.9
20260903115047 67 328 4.0 9.0 0.00 0.00 0.00 97 903.9
20260903114648 67 277 2.0 4.0 0.00 0.00 0.00 97 903.9
20260903114546 67 29 1.0 4.0 0.00 0.00 0.00 97 903.9
20260903114048 67 15 5.0 9.0 0.00 0.00 0.00 97 904.0
20260903114046 67 34 5.0 9.0 0.00 0.00 0.00 97 903.9
20260903113546 67 21 4.0 9.0 0.00 0.00 0.00 97 904.0
20260903113448 67 27 4.0 9.0 0.00 0.00 0.00 97 904.0
20260903113046 67 24 4.0 8.0 0.00 0.00 0.00 97 903.9
20260903112848 67 71 2.0 8.0 0.00 0.00 0.00 97 903.9
20260903112547 67 63 3.0 8.0 0.00 0.00 0.00 97 903.9
20260903112248 68 7 2.0 7.0 0.00 0.00 0.00 97 903.9
20260903112046 68 40 2.0 7.0 0.00 0.00 0.00 97 903.9
20260903111648 68 15 3.0 7.0 0.00 0.00 0.00 97 903.8
20260903111546 68 100 2.0 7.0 0.00 0.00 0.00 97 903.7
20260903111047 68 25 2.0 7.0 0.00 0.00 0.00 97 903.8
20260903110546 68 294 3.0 6.0 0.00 0.00 0.00 97 903.7
20260903110447 68 97 3.0 6.0 0.00 0.00 0.00 97 903.7
20260903110046 68 6 1.0 5.0 0.00 0.00 0.00 97 903.7
20260903105847 68 277 2.0 6.0 0.00 0.00 0.00 97 903.7
20260903105546 68 332 3.0 6.0 0.00 0.00 0.00 97 903.6
20260903105247 68 310 2.0 6.0 0.00 0.00 0.00 97 903.7
20260903105046 68 317 2.0 8.0 0.00 0.00 0.00 97 903.6
20260903104647 68 64 2.0 8.0 0.00 0.00 0.00 97 903.7
20260903104546 68 112 2.0 8.0 0.00 0.00 0.00 97 903.6
20260903104047 68 134 2.0 7.0 0.00 0.00 0.00 97 903.6
20260903103546 68 48 1.0 8.0 0.00 0.00 0.00 97 903.6
20260903103450 68 66 2.0 8.0 0.00 0.00 0.00 97 903.6
20260903103046 68 121 3.0 8.0 0.00 0.00 0.00 97 903.5
20260903102847 68 221 3.0 8.0 0.00 0.00 0.00 97 903.5
20260903102546 68 131 3.0 6.0 0.00 0.00 0.00 97 903.5
20260903102248 67 145 0.0 0.0 0.00 0.00 0.00 97 903.4
20260903101546 68 195 4.0 10.0 0.01 0.01 0.00 96 903.3
20260903101047 68 66 2.0 10.0 0.00 0.00 0.00 96 903.4
20260903100546 68 124 3.0 4.0 0.00 0.00 0.00 96 903.4
20260903100447 68 122 2.0 4.0 0.00 0.00 0.00 96 903.4
20260903095847 68 42 0.0 6.0 0.00 0.00 0.00 96 903.3
20260903095546 68 145 4.0 9.0 0.00 0.00 0.00 96 903.2
20260903095247 68 112 3.0 7.0 0.00 0.00 0.00 96 903.1
20260903095045 68 176 3.0 7.0 0.00 0.00 0.00 96 903.1
20260903094647 68 163 0.0 4.0 0.00 0.00 0.00 96 903.1
20260903094545 68 93 3.0 8.0 0.00 0.00 0.00 96 903.1
20260903094049 68 87 1.0 6.0 0.00 0.00 0.00 96 903.2
20260903094047 68 85 1.0 6.0 0.00 0.00 0.00 96 903.2
20260903093545 68 121 2.0 5.0 0.00 0.00 0.00 95 903.1
20260903093447 68 186 0.0 3.0 0.00 0.00 0.00 95 903.1
20260903093045 68 108 2.0 10.0 0.00 0.00 0.00 95 903.1
20260903092847 68 360 6.0 10.0 0.00 0.00 0.00 95 903.1
20260903092545 68 255 0.0 2.0 0.00 0.00 0.00 95 903.0
20260903092247 68 70 3.0 10.0 0.00 0.00 0.00 95 903.1
20260903092045 68 149 4.0 10.0 0.00 0.00 0.00 95 903.0
20260903091647 69 113 3.0 10.0 0.00 0.00 0.00 95 902.9
20260903091545 69 102 4.0 10.0 0.00 0.00 0.00 95 902.9
20260903091047 69 94 3.0 9.0 0.00 0.00 0.00 94 902.8
20260903091045 69 95 3.0 9.0 0.00 0.00 0.00 94 902.8
20260903090545 69 96 3.0 9.0 0.00 0.00 0.00 94 902.8
20260903090447 69 41 3.0 9.0 0.00 0.00 0.00 94 902.8
20260903090045 69 327 1.0 9.0 0.00 0.00 0.00 94 902.7
20260903085846 69 22 3.0 9.0 0.00 0.00 0.00 94 902.8
20260903085545 69 95 2.0 9.0 0.00 0.00 0.00 94 902.7
20260903085247 69 115 4.0 9.0 0.00 0.00 0.00 94 902.8
20260903085045 69 102 4.0 6.0 0.00 0.00 0.00 94 902.8
20260903084646 69 281 4.0 7.0 0.00 0.00 0.00 94 902.8
20260903084545 69 89 4.0 7.0 0.00 0.00 0.00 94 902.7
20260903084047 69 146 1.0 9.0 0.00 0.00 0.00 94 902.6
20260903084045 69 154 1.0 9.0 0.00 0.00 0.00 94 902.6
20260903083545 69 77 2.0 4.0 0.00 0.00 0.00 94 902.7
20260903083446 69 344 1.0 4.0 0.00 0.00 0.00 94 902.7
20260903083045 69 295 4.0 9.0 0.00 0.00 0.00 94 902.7
20260903082846 69 129 4.0 9.0 0.00 0.00 0.00 94 902.6
20260903082545 69 103 4.0 9.0 0.00 0.00 0.00 94 902.6
20260903082247 69 242 4.0 9.0 0.00 0.00 0.00 94 902.6
20260903082045 69 83 1.0 7.0 0.00 0.00 0.00 94 902.6
20260903081646 69 313 4.0 10.0 0.00 0.00 0.00 93 902.5
20260903081545 69 148 4.0 9.0 0.00 0.00 0.00 93 902.6
20260903081046 69 40 3.0 7.0 0.00 0.00 0.00 93 902.5
20260903080545 69 271 5.0 10.0 0.00 0.00 0.00 93 902.5
20260903080446 69 97 4.0 10.0 0.00 0.00 0.00 93 902.4
20260903080045 69 74 0.0 4.0 0.00 0.00 0.00 94 902.4
20260903075846 69 297 3.0 10.0 0.00 0.00 0.00 93 902.4
20260903075545 69 259 4.0 9.0 0.00 0.00 0.00 94 902.5
20260903075247 69 2 0.0 5.0 0.00 0.00 0.00 94 902.4
20260903075045 69 200 3.0 9.0 0.00 0.00 0.00 94 902.4
20260903074646 69 121 3.0 5.0 0.00 0.00 0.00 94 902.4
20260903074545 69 87 1.0 4.0 0.00 0.00 0.00 94 902.5
20260903074046 69 108 4.0 10.0 0.00 0.00 0.00 94 902.4
20260903074044 69 109 4.0 10.0 0.00 0.00 0.00 94 902.4
20260903073544 69 111 4.0 10.0 0.00 0.00 0.00 93 902.4
20260903073446 69 125 4.0 10.0 0.00 0.00 0.00 93 902.5
20260903073044 70 135 3.0 10.0 0.00 0.00 0.00 93 902.5
20260903072846 70 350 4.0 10.0 0.00 0.00 0.00 93 902.6
20260903072544 70 144 6.0 10.0 0.00 0.00 0.00 93 902.5
20260903072247 70 137 3.0 9.0 0.00 0.00 0.00 93 902.5
20260903072044 70 105 4.0 9.0 0.00 0.00 0.00 93 902.5
20260903071646 70 64 3.0 9.0 0.00 0.00 0.00 93 902.5
20260903071544 70 149 4.0 9.0 0.00 0.00 0.00 93 902.5
20260903071046 70 148 3.0 10.0 0.00 0.00 0.00 93 902.5
20260903071044 70 136 3.0 10.0 0.00 0.00 0.00 93 902.5
20260903070544 70 59 4.0 10.0 0.00 0.00 0.00 93 902.5
20260903070446 70 287 3.0 10.0 0.00 0.00 0.00 93 902.5
20260903070044 70 72 5.0 9.0 0.00 0.00 0.00 93 902.5
20260903065845 70 255 3.0 9.0 0.00 0.00 0.00 92 902.6
20260903065544 70 178 2.0 9.0 0.00 0.00 0.00 92 902.5
20260903065246 70 182 4.0 9.0 0.00 0.00 0.00 92 902.5
20260903065044 70 156 2.0 7.0 0.00 0.00 0.00 92 902.5
20260903064645 70 74 3.0 6.0 0.00 0.00 0.00 93 902.5
20260903064545 70 163 1.0 6.0 0.00 0.00 0.00 93 902.6
20260903064046 70 159 4.0 9.0 0.00 0.00 0.00 93 902.6
20260903064044 70 148 4.0 9.0 0.00 0.00 0.00 93 902.6
20260903063544 70 89 4.0 10.0 0.00 0.00 0.00 93 902.6
20260903063446 70 258 5.0 10.0 0.00 0.00 0.00 93 902.6
20260903063044 70 99 4.0 10.0 0.00 0.00 0.00 93 902.7
20260903062245 70 125 3.0 10.0 0.00 0.00 0.00 93 902.7
20260903062044 70 163 2.0 7.0 0.00 0.00 0.00 93 902.7
20260903061645 70 204 4.0 6.0 0.00 0.00 0.00 93 902.8
20260903061544 70 148 2.0 5.0 0.00 0.00 0.00 94 902.8
20260903061046 70 104 5.0 14.0 0.00 0.00 0.00 93 902.6
20260903061044 70 97 4.0 10.0 0.00 0.00 0.00 93 902.6
20260903060544 70 111 3.0 11.0 0.00 0.00 0.00 93 902.8
20260903060445 70 53 3.0 11.0 0.00 0.00 0.00 93 902.9
20260903060044 70 64 5.0 11.0 0.00 0.00 0.00 93 902.8
20260903055845 70 348 4.0 11.0 0.00 0.00 0.00 93 902.7
20260903055544 70 130 4.0 9.0 0.00 0.00 0.00 93 902.8
20260903055245 70 200 4.0 8.0 0.00 0.00 0.00 93 902.9
20260903055044 70 70 3.0 7.0 0.00 0.00 0.00 93 902.9
20260903054645 70 41 4.0 11.0 0.00 0.00 0.00 93 902.9
20260903054543 70 161 5.0 11.0 0.00 0.00 0.00 93 902.9
20260903054045 70 207 2.0 9.0 0.00 0.00 0.00 93 902.8
20260903053544 70 120 5.0 10.0 0.00 0.00 0.00 93 902.8
20260903053445 70 251 5.0 10.0 0.00 0.00 0.00 93 902.9
20260903053043 70 71 5.0 10.0 0.00 0.00 0.00 93 902.9
20260903052543 70 264 4.0 9.0 0.00 0.00 0.00 93 902.9
20260903052245 70 127 4.0 9.0 0.00 0.00 0.00 94 903.0
20260903052043 70 164 2.0 9.0 0.00 0.00 0.00 94 902.9
20260903051645 69 95 4.0 10.0 0.00 0.00 0.00 93 902.9
20260903051543 69 192 5.0 10.0 0.00 0.00 0.00 93 902.9
20260903051045 69 115 5.0 9.0 0.00 0.00 0.00 94 902.9
20260903051043 69 92 5.0 9.0 0.00 0.00 0.00 94 902.9
20260903050543 69 45 1.0 6.0 0.00 0.00 0.00 94 902.8
20260903050043 68 150 5.0 13.0 0.00 0.00 0.00 94 902.8
20260903045844 69 298 4.0 13.0 0.00 0.00 0.00 94 902.9
20260903045543 69 154 7.0 13.0 0.00 0.00 0.00 94 902.8
20260903045244 69 152 4.0 9.0 0.00 0.00 0.00 94 902.9
20260903045043 69 130 2.0 8.0 0.00 0.00 0.00 94 902.9
20260903044644 69 235 3.0 9.0 0.00 0.00 0.00 94 902.9
20260903044543 69 206 4.0 9.0 0.00 0.00 0.00 94 903.0
20260903044045 69 154 4.0 7.0 0.00 0.00 0.00 94 903.0
20260903044043 69 146 4.0 7.0 0.00 0.00 0.00 94 903.0
20260903025844 68 3 5.0 11.0 0.00 0.00 0.00 94 903.3
20260903025542 68 23 4.0 10.0 0.00 0.00 0.00 93 903.3
20260903025243 68 6 8.0 18.0 0.00 0.00 0.00 93 903.3
20260903025042 68 11 9.0 18.0 0.00 0.00 0.00 93 903.4
20260903024644 68 359 8.0 15.0 0.00 0.00 0.00 93 903.3
20260903024542 68 352 8.0 15.0 0.00 0.00 0.00 93 903.4
20260903024044 68 311 8.0 16.0 0.00 0.00 0.00 93 903.4
20260903024042 68 315 8.0 16.0 0.00 0.00 0.00 93 903.4
20260903023542 68 327 3.0 16.0 0.00 0.00 0.00 93 903.4
20260903023443 68 309 9.0 17.0 0.00 0.00 0.00 94 903.4
20260903023042 67 352 0.0 0.0 0.00 0.00 0.00 94 903.4
20260903022843 67 348 6.0 16.0 0.00 0.00 0.00 94 903.4
20260903022542 67 316 5.0 16.0 0.00 0.00 0.00 94 903.4
20260903022243 67 320 7.0 16.0 0.00 0.00 0.00 93 903.4
20260903022043 67 317 6.0 10.0 0.00 0.00 0.00 93 903.4
20260903021643 68 0 9.0 15.0 0.00 0.00 0.00 93 903.4
20260903021542 68 350 8.0 15.0 0.00 0.00 0.00 93 903.3
20260903021045 68 314 3.0 14.0 0.00 0.00 0.00 93 903.4
20260903020542 68 337 0.0 0.0 0.00 0.00 0.00 92 903.3
20260903020443 68 338 1.0 12.0 0.00 0.00 0.00 92 903.3
20260903020042 68 13 1.0 10.0 0.00 0.00 0.00 92 903.3
20260903015843 69 360 10.0 21.0 0.00 0.00 0.00 92 903.1
20260903015542 68 294 10.0 18.0 0.00 0.00 0.00 93 903.2
20260903015243 68 2 8.0 15.0 0.00 0.00 0.00 93 903.2
20260903015042 67 45 8.0 15.0 0.00 0.00 0.00 94 903.3
20260903014643 67 298 8.0 16.0 0.00 0.00 0.00 94 903.2
20260903014542 67 344 9.0 17.0 0.00 0.00 0.00 94 903.3
20260903014043 66 318 9.0 17.0 0.00 0.00 0.00 94 903.3
20260903013542 66 350 9.0 16.0 0.00 0.00 0.00 94 903.2
20260903013443 66 9 7.0 16.0 0.00 0.00 0.00 94 903.3
20260903013042 66 4 6.0 12.0 0.00 0.00 0.00 94 903.3
20260903012843 66 349 0.0 7.0 0.00 0.00 0.00 94 903.4
20260903012542 67 341 8.0 17.0 0.00 0.00 0.00 94 903.5
20260903012243 67 358 7.0 17.0 0.00 0.00 0.00 94 903.3
20260903012042 67 4 9.0 17.0 0.00 0.00 0.00 94 903.3
20260903011643 67 333 8.0 14.0 0.00 0.00 0.00 94 903.4
20260903011541 67 301 8.0 14.0 0.00 0.00 0.00 94 903.4
20260903011043 66 37 8.0 17.0 0.00 0.00 0.00 94 903.3
20260903010541 66 29 7.0 17.0 0.00 0.00 0.00 94 903.3
20260903010443 66 342 8.0 17.0 0.00 0.00 0.00 94 903.3
20260903010041 66 331 10.0 17.0 0.00 0.00 0.00 94 903.4
20260903005843 66 360 9.0 17.0 0.00 0.00 0.00 94 903.3
20260903005541 66 316 9.0 14.0 0.00 0.00 0.00 94 903.4
20260903005243 66 347 4.0 14.0 0.00 0.00 0.00 95 903.4
20260903005041 66 331 9.0 15.0 0.00 0.00 0.00 95 903.4
20260903004643 66 333 8.0 16.0 0.00 0.00 0.00 95 903.4
20260903004541 66 360 7.0 16.0 0.00 0.00 0.00 95 903.4
20260903004043 65 349 4.0 16.0 0.00 0.00 0.00 96 903.4
20260903004041 65 345 4.0 16.0 0.00 0.00 0.00 96 903.5
20260903003541 65 22 7.0 14.0 0.00 0.00 0.00 96 903.5
20260903003442 65 316 9.0 14.0 0.00 0.00 0.00 96 903.5
20260903003042 65 28 7.0 13.0 0.00 0.00 0.00 96 903.4
20260903002842 65 351 2.0 13.0 0.00 0.00 0.00 96 903.4
20260903002541 65 360 6.0 14.0 0.00 0.00 0.00 96 903.4
20260903002242 65 349 5.0 15.0 0.00 0.00 0.00 96 903.3
20260903002041 65 4 6.0 15.0 0.00 0.00 0.00 96 903.5
20260903001642 65 334 8.0 15.0 0.00 0.00 0.00 96 903.5
20260903001541 65 350 9.0 16.0 0.00 0.00 0.00 96 903.4
20260903001043 65 13 9.0 16.0 0.00 0.00 0.00 96 903.4
20260903001041 65 4 9.0 16.0 0.00 0.00 0.00 96 903.5
20260903000541 65 301 9.0 14.0 0.00 0.00 0.00 96 903.4
20260903000442 65 358 9.0 14.0 0.00 0.00 0.00 96 903.4
20260903000041 64 9 7.0 14.0 0.00 0.00 0.00 96 903.4
20260902235842 64 360 7.0 14.0 0.00 0.00 0.00 96 903.4
20260902235541 64 337 8.0 14.0 0.00 0.00 0.00 96 903.4
20260902235242 64 360 5.0 14.0 0.00 0.00 0.00 96 903.4
20260902235041 64 357 8.0 14.0 0.00 0.00 0.00 96 903.4
20260902234642 64 335 8.0 14.0 0.00 0.00 0.00 96 903.4
20260902234542 64 360 8.0 14.0 0.00 0.00 0.00 96 903.4
20260902234042 64 12 7.0 15.0 0.00 0.00 0.00 96 903.3
20260902233541 64 324 9.0 15.0 0.00 0.00 0.00 97 903.2
20260902233442 64 351 9.0 15.0 0.00 0.00 0.00 97 903.2
20260902233041 64 106 8.0 15.0 0.00 0.00 0.00 97 903.2
20260902232842 64 27 9.0 15.0 0.00 0.00 0.00 97 903.2
20260902232541 64 360 7.0 15.0 0.00 0.00 0.00 97 903.2
20260902232242 64 13 6.0 15.0 0.00 0.00 0.00 97 903.1
20260902232041 64 334 8.0 15.0 0.00 0.00 0.00 97 903.1
20260902231642 64 355 6.0 13.0 0.00 0.00 0.00 97 903.1
20260902231541 64 320 3.0 12.0 0.00 0.00 0.00 97 903.0
20260902231042 64 12 9.0 15.0 0.00 0.00 0.00 97 902.9
20260902230541 64 287 8.0 15.0 0.00 0.00 0.00 97 902.9
20260902230442 64 3 9.0 15.0 0.00 0.00 0.00 97 902.9
20260902230040 64 322 4.0 10.0 0.00 0.00 0.00 97 902.8
20260902225842 64 2 5.0 15.0 0.00 0.00 0.00 97 902.9
20260902225242 64 331 6.0 15.0 0.00 0.00 0.00 97 902.8
20260902225040 63 106 3.0 15.0 0.00 0.00 0.00 97 902.8
20260902224641 63 64 5.0 14.0 0.00 0.00 0.00 97 903.0
20260902224540 63 116 5.0 12.0 0.00 0.00 0.00 97 902.9
20260902224042 63 283 4.0 12.0 0.00 0.00 0.00 97 902.8
20260902224040 63 266 4.0 12.0 0.00 0.00 0.00 97 902.8
20260902223540 63 253 4.0 12.0 0.00 0.00 0.00 97 902.8
20260902223441 63 271 4.0 12.0 0.00 0.00 0.00 97 902.7
20260902223040 63 316 5.0 16.0 0.00 0.00 0.00 97 902.9
20260902222842 63 259 4.0 16.0 0.00 0.00 0.00 97 902.9
20260902222540 63 265 5.0 16.0 0.00 0.00 0.00 97 902.8
20260902222241 63 241 5.0 16.0 0.00 0.00 0.00 97 902.8
20260902222040 63 331 5.0 14.0 0.00 0.00 0.00 97 902.8
20260902221641 63 266 6.0 14.0 0.00 0.00 0.00 97 902.7
20260902221042 63 35 4.0 13.0 0.00 0.00 0.00 97 902.6
20260902221040 63 47 4.0 13.0 0.00 0.00 0.00 97 902.6
20260902220540 63 16 6.0 13.0 0.00 0.00 0.00 97 902.6
20260902220441 63 46 5.0 11.0 0.00 0.00 0.00 97 902.7
20260902220040 63 265 5.0 13.0 0.00 0.00 0.00 97 902.7
20260902215841 63 14 4.0 13.0 0.00 0.00 0.00 97 902.7
20260902215541 63 295 4.0 13.0 0.00 0.00 0.00 97 902.6
20260902215241 63 199 4.0 13.0 0.00 0.00 0.00 97 902.6
20260902214641 63 360 4.0 13.0 0.00 0.00 0.00 97 902.6
20260902214540 63 46 4.0 13.0 0.00 0.00 0.00 97 902.5
20260902214042 63 271 4.0 13.0 0.00 0.00 0.00 97 902.6
20260902214040 63 284 4.0 13.0 0.00 0.00 0.00 97 902.6
20260902213540 64 315 6.0 13.0 0.00 0.00 0.00 96 902.6
20260902213441 64 17 6.0 13.0 0.00 0.00 0.00 96 902.6
20260902213040 64 5 6.0 15.0 0.00 0.00 0.00 96 902.6
20260902212841 64 328 7.0 16.0 0.00 0.00 0.00 96 902.7
20260902212540 64 360 9.0 16.0 0.00 0.00 0.00 96 902.6
20260902212241 64 342 9.0 16.0 0.00 0.00 0.00 96 902.6
20260902212040 64 338 10.0 19.0 0.00 0.00 0.00 96 902.5
20260902211641 64 353 9.0 19.0 0.00 0.00 0.00 96 902.5
20260902211540 64 29 9.0 19.0 0.00 0.00 0.00 96 902.3
20260902211041 64 309 9.0 17.0 0.00 0.00 0.00 96 902.3
20260902210540 64 325 9.0 17.0 0.00 0.00 0.00 96 902.4
20260902210441 64 338 9.0 17.0 0.00 0.00 0.00 96 902.5
20260902210040 64 337 8.0 17.0 0.00 0.00 0.00 97 902.5
20260902205841 64 348 10.0 16.0 0.00 0.00 0.00 97 902.5
20260902205539 64 335 4.0 15.0 0.00 0.00 0.00 97 902.3
20260902205241 64 356 9.0 15.0 0.00 0.00 0.00 97 902.3
20260902205039 64 11 10.0 15.0 0.00 0.00 0.00 97 902.4
20260902204641 64 16 9.0 15.0 0.00 0.00 0.00 97 902.4
20260902204541 64 356 9.0 15.0 0.00 0.00 0.00 96 902.4
20260902204041 64 342 9.0 15.0 0.00 0.00 0.00 96 902.3
20260902204039 64 303 9.0 15.0 0.00 0.00 0.00 96 902.3
20260902203539 64 354 9.0 15.0 0.00 0.00 0.00 96 902.4
20260902203440 64 3 9.0 15.0 0.00 0.00 0.00 96 902.4
20260902203039 64 2 9.0 19.0 0.00 0.00 0.00 96 902.3
20260902202840 64 327 9.0 19.0 0.00 0.00 0.00 96 902.3
20260902202240 64 1 11.0 19.0 0.00 0.00 0.00 96 902.3
20260902202039 64 360 9.0 17.0 0.00 0.00 0.00 96 902.3
20260902201640 64 350 9.0 19.0 0.00 0.00 0.00 96 902.2
20260902201539 64 349 8.0 19.0 0.00 0.00 0.00 96 902.3
20260902201041 64 22 8.0 20.0 0.00 0.00 0.00 96 902.2
20260902201039 64 357 8.0 20.0 0.00 0.00 0.00 96 902.2
20260902200539 64 351 10.0 20.0 0.00 0.00 0.00 96 902.1
20260902200440 64 35 10.0 20.0 0.00 0.00 0.00 96 902.3
20260902200039 64 324 10.0 19.0 0.00 0.00 0.00 96 902.4
20260902195840 64 22 9.0 19.0 0.00 0.00 0.00 97 902.4
20260902195539 64 6 9.0 18.0 0.00 0.00 0.00 96 902.4
20260902195240 64 1 9.0 18.0 0.00 0.00 0.00 96 902.3
20260902195039 64 349 8.0 18.0 0.00 0.00 0.00 96 902.5
20260902194640 64 9 7.0 16.0 0.00 0.00 0.00 96 902.5
20260902194539 64 360 9.0 16.0 0.00 0.00 0.00 96 902.5
20260902194041 64 355 9.0 14.0 0.00 0.00 0.00 96 902.2
20260902194039 64 347 9.0 14.0 0.00 0.00 0.00 96 902.3
20260902193539 64 353 9.0 15.0 0.00 0.00 0.00 96 902.4
20260902193440 64 316 9.0 15.0 0.00 0.00 0.00 96 902.4
20260902193039 64 1 9.0 16.0 0.00 0.00 0.00 96 902.4
20260902192840 64 341 9.0 16.0 0.00 0.00 0.00 96 902.5